Location: Miles
(41.4492°N, 81.6087°W)
Time: 22:04:58
(UTC+00:00)

Vanguard 2 Rocket - Pass Details

Date: 27 September 2024
Orbit: 553 x 3298 km, 32.9° (Epoch: 12 October)

Event Time Altitude Azimuth Distance (km) Brightness Sun altitude
Rises 05:12:48 0° 251° (WSW) 3,251 - -50.4°
Reaches altitude 10° 05:14:54 10° 245° (WSW) 2,527 - -50.4°
Maximum altitude 05:20:37 45° 173° (S) 1,590 - -50.4°
Drops below altitude 10° 05:30:19 10° 105° (ESE) 4,247 - -50.3°
Exits shadow 05:33:02 - 102° (ESE) 5,120 10.7 -50.2°
Sets 05:34:56 0° 101° (E) 5,720 11.0 -50.2°
